This demonstration page uses our WeatherBlox Daily Observations layout. Learn more.

Left ArrowRight Arrow

39.51506, -84.39828

Hourly Observations for March 17, 2017

Temp ( °F °C ) Dew Point ( °F °C ) Humidity (%) Winds ( mph kmh ) Pressure ( in mb ) Visibility ( mi km ) Precip ( " mm )
12:15 am 00:15 Clear 27 -2.8 14 -9.8 59 59 Calm 30.33 1027 10 16 0.00 0.00
12:35 am 00:35 Clear 27 -2.8 15 -9.4 61 61 Calm 30.33 1027 10 16 0.00 0.00
12:55 am 00:55 Clear 27 -2.8 15 -9.5 60 60 Calm 30.33 1027 10 16 0.00 0.00
1:15 am 01:15 Clear 25 -4.1 14 -9.9 64 64 Calm 30.33 1027 10 16 0.00 0.00
1:35 am 01:35 Clear 24 -4.2 15 -9.5 67 67 Calm 30.33 1027 10 16 0.00 0.00
1:55 am 01:55 Clear 24 -4.2 15 -9.3 68 68 Calm 30.33 1027 10 16 0.00 0.00
2:15 am 02:15 Clear 23 -4.9 14 -9.9 68 68 Calm 30.36 1028 10 16 0.00 0.00
2:35 am 02:35 Clear 23 -5 15 -9.7 70 70 Calm 30.36 1028 10 16 0.00 0.00
2:55 am 02:55 Clear 23 -5 15 -9.6 70 70 Calm 30.36 1028 10 16 0.00 0.00
3:15 am 03:15 Clear 23 -5 15 -9.5 71 71 Calm 30.36 1028 10 16 0.00 0.00
3:35 am 03:35 Clear 23 -5 15 -9.2 73 73 Calm 30.36 1028 10 16 0.00 0.00
3:55 am 03:55 Clear 24 -4.2 16 -8.8 71 71 Calm 30.33 1027 10 16 0.00 0.00
4:15 am 04:15 Clear 25 -3.8 18 -7.8 74 74 Calm 30.33 1027 10 16 0.00 0.00
4:35 am 04:35 Clear 27 -2.8 19 -7.1 73 73 Calm 30.33 1027 10 16 0.00 0.00
4:55 am 04:55 Mostly Cloudy 29 -1.9 21 -6.1 73 73 Calm 30.30 1026 10 16 0.00 0.00
5:15 am 05:15 Mostly Cloudy 29 -1.5 21 -6 72 72 Calm 30.30 1026 10 16 0.00 0.00
5:35 am 05:35 Cloudy 29 -1.5 21 -6.1 71 71 Calm 30.33 1027 10 16 0.00 0.00
5:55 am 05:55 Cloudy 29 -1.5 22 -5.6 74 74 Calm 30.30 1026 10 16 0.00 0.00
6:15 am 06:15 Cloudy 30 -1 21 -5.9 70 70 Calm 30.30 1026 10 16 0.00 0.00
6:35 am 06:35 Cloudy 32 0 21 -6.3 63 63 Calm 30.30 1026 10 16 0.00 0.00
6:55 am 06:55 Cloudy 34 1.2 20 -6.5 57 57 Calm 30.30 1026 10 16 0.00 0.00
7:15 am 07:15 Cloudy 34 1.2 16 -8.8 48 48 SSE 5 7 30.30 1026 10 16 0.00 0.00
7:35 am 07:35 Cloudy 34 1.2 15 -9.3 46 46 SSE 5 7 30.30 1026 10 16 0.00 0.00
7:55 am 07:55 Cloudy 34 1.2 15 -9.6 45 45 SSE 3 6 30.30 1026 10 16 0.00 0.00
8:15 am 08:15 Cloudy 34 1.2 15 -9.4 46 46 Calm 30.30 1026 10 16 0.00 0.00
8:35 am 08:35 Cloudy with Light Snow 34 1.2 17 -8.3 50 50 SSW 3 6 30.30 1026 5 8 0.00 0.00
8:55 am 08:55 Cloudy with Light Snow 34 1.2 20 -6.9 55 55 Calm 30.30 1026 10 16 0.00 0.00
9:15 am 09:15 Cloudy 34 1.3 19 -7.1 54 54 SE 3 6 30.30 1026 10 16 0.00 0.00
9:35 am 09:35 Cloudy with Light Snow 37 2.6 19 -7.3 48 48 SSE 6 9 30.30 1026 10 16 0.00 0.00
9:55 am 09:55 Cloudy 37 2.6 18 -8 46 46 SE 6 9 30.27 1025 10 16 0.00 0.00
10:15 am 10:15 Cloudy 37 2.6 21 -6.3 52 52 SSE 9 15 30.27 1025 10 16 0.00 0.00
10:35 am 10:35 Cloudy with Light Snow 37 2.6 23 -5.2 57 57 S 9 15 30.27 1025 5 8 0.00 0.00
10:55 am 10:55 Cloudy 37 2.6 26 -3.3 65 65 SSE 7 11 30.24 1024 10 16 0.00 0.00
11:15 am 11:15 Cloudy with Light Snow 37 2.6 27 -2.6 69 69 SSE 12 19 30.24 1024 4 6 0.00 0.00
11:35 am 11:35 Cloudy with Light Snow 37 2.6 29 -1.6 74 74 SSE 7 11 30.21 1023 4 6 0.00 0.00
11:55 am 11:55 Cloudy 37 2.6 30 -1.3 76 76 SE 6 9 30.21 1023 10 16 0.00 0.00
12:15 pm 12:15 Cloudy 37 2.6 30 -1.1 77 77 SE 8 13 30.21 1023 10 16 0.00 0.00
12:35 pm 12:35 Cloudy 37 2.6 30 -1 77 77 SE 3 6 30.21 1023 10 16 0.00 0.00
12:55 pm 12:55 Cloudy with Haze 37 2.6 31 -0.6 80 80 S 6 9 30.21 1023 4 6 0.00 0.00
1:15 pm 13:15 Cloudy with Haze 37 2.6 31 -0.5 80 80 SSE 3 6 30.21 1023 3 5 0.00 0.00
1:35 pm 13:35 Cloudy with Haze 37 3 32 0 81 81 Calm 30.18 1022 5 8 0.00 0.00
1:55 pm 13:55 Cloudy with Haze 37 3 32 0 81 81 ESE 3 6 30.18 1022 3 4 0.00 0.00
2:15 pm 14:15 Cloudy with Haze 39 4 34 1 81 81 ESE 3 6 30.18 1022 3 5 0.00 0.00
2:35 pm 14:35 Cloudy 39 4 34 1 81 81 SE 6 9 30.15 1021 7 11 0.00 0.00
2:55 pm 14:55 Cloudy with Haze 39 4 34 1 81 81 SE 6 9 30.12 1020 5 8 0.00 0.00
3:15 pm 15:15 Cloudy with Haze 39 4 33 0.7 79 79 SE 6 9 30.12 1020 5 8 0.00 0.00
3:35 pm 15:35 Cloudy 39 4 33 0.5 78 78 SSE 7 11 30.12 1020 10 16 0.00 0.00
3:55 pm 15:55 Cloudy 39 4 33 0.3 77 77 SSE 9 15 30.12 1020 10 16 0.00 0.00
4:15 pm 16:15 Cloudy with Light Snow 39 4 33 0.5 78 78 SSE 8 13 30.09 1019 5 8 0.00 0.00
4:35 pm 16:35 Cloudy with Light Snow 39 4 33 0.6 79 79 SSE 10 17 30.09 1019 4 6 0.00 0.00
4:55 pm 16:55 Cloudy with Light Snow 39 4 33 0.6 79 79 SSE 9 15 30.09 1019 4 6 0.00 0.00
5:15 pm 17:15 Cloudy with Haze 39 4 34 1 81 81 SSE 5 7 30.09 1019 2 3 0.00 0.00
5:35 pm 17:35 Cloudy with Haze 39 4 34 1.1 82 82 S 5 7 30.09 1019 2 3 0.00 0.00
5:55 pm 17:55 Cloudy with Haze 39 4 34 1.3 83 83 SSE 3 6 30.09 1019 2 2 0.00 0.00
6:15 pm 18:15 Cloudy with Haze 39 4 34 1.3 83 83 S 5 7 30.09 1019 1 2 0.00 0.00
6:35 pm 18:35 Cloudy with Haze 39 4 34 1.3 83 83 Calm 30.09 1019 2 2 0.00 0.00
6:55 pm 18:55 Cloudy with Mist and Fog 39 4 35 1.5 84 84 SSE 5 7 30.03 1017 2 3 0.00 0.00
7:15 pm 19:15 Cloudy with Mist and Fog 39 4 35 1.5 84 84 S 3 6 30.09 1019 3 4 0.00 0.00
7:35 pm 19:35 Cloudy with Mist and Fog 39 4.1 35 1.5 83 83 Calm 30.06 1018 2 3 0.00 0.00
7:55 pm 19:55 Cloudy with Haze 40 4.3 35 1.7 83 83 Calm 30.06 1018 3 5 0.00 0.00
8:15 pm 20:15 Cloudy with Haze 40 4.2 35 1.6 83 83 Calm 30.06 1018 2 3 0.00 0.00
8:35 pm 20:35 Cloudy with Haze 40 4.2 35 1.6 83 83 Calm 30.06 1018 1 2 0.00 0.00
8:55 pm 20:55 Cloudy with Mist and Fog 39 4 35 1.5 84 84 Calm 30.09 1019 1 1 0.00 0.00
9:15 pm 21:15 Cloudy with Mist and Fog 39 4 35 1.5 84 84 Calm 30.09 1019 1 1 0.00 0.00
9:35 pm 21:35 Cloudy with Fog 39 4 35 1.5 84 84 Calm 30.09 1019 1 1 0.00 0.00
9:55 pm 21:55 Cloudy with Fog 39 4 35 1.7 85 85 Calm 30.09 1019 1 1 0.00 0.00
10:15 pm 22:15 Cloudy with Mist and Fog 39 4.1 35 1.8 85 85 Calm 30.06 1018 1 1 0.00 0.00
10:35 pm 22:35 Cloudy with Mist and Fog 39 4 35 1.7 85 85 Calm 30.09 1019 1 1 0.00 0.00
10:55 pm 22:55 Cloudy with Fog 39 4.1 35 1.7 85 85 Calm 30.06 1018 1 1 0.00 0.00
11:15 pm 23:15 Cloudy with Fog 40 4.6 36 2.3 85 85 Calm 30.06 1018 1 1 0.00 0.00
11:35 pm 23:35 Cloudy with Haze 40 4.7 37 2.5 86 86 Calm 30.06 1018 1 1 0.00 0.00
11:55 pm 23:55 Cloudy with Fog 40 4.3 36 2 85 85 Calm 30.06 1018 1 1 0.00 0.00

Powered by AerisWeather